When you browse on this site, cookies collect data to enhance your experience and personalize the content and advertising you see.
Visit our Privacy Policy to learn more. By continuing to use the site, you agree to this use of cookies and data.
  • In Hungary
  • List of Countries
  • For 7 days
  • Water Temperature
  • Satellite Maps
  • Weather Map
  • News
  • Weather Widgets
  • user-avatar
    Login

    Hourly Weather Bienskie

    Today, 19 November, Monday

    Time Temperature Precipitation Wind Pressure Humidity
    00:00 -2°C° 0 mm 2 mps 743 mmHg 77%
    01:00 -1°C° 0 mm 3 mps 743 mmHg 82%
    02:00 -1°C° 0.1 mm 3 mps 743 mmHg 84%
    03:00 -1°C° 0.1 mm 3 mps 743 mmHg 85%
    04:00 -1°C° 0.1 mm 3 mps 742 mmHg 86%
    05:00 -1°C° 0 mm 3 mps 742 mmHg 86%
    06:00 -1°C° 0 mm 4 mps 742 mmHg 86%
    07:00 -1°C° 0 mm 4 mps 742 mmHg 85%
    08:00 -1°C° 0 mm 4 mps 743 mmHg 81%
    09:00 -1°C° 0 mm 5 mps 743 mmHg 77%
    10:00 -2°C° 0 mm 6 mps 743 mmHg 73%
    11:00 -1°C° 0 mm 6 mps 743 mmHg 69%
    12:00 -1°C° 0 mm 6 mps 743 mmHg 64%
    13:00 0°C° 0 mm 4 mps 743 mmHg 55%
    14:00 0°C° 0 mm 4 mps 743 mmHg 58%
    15:00 -1°C° 0 mm 4 mps 743 mmHg 60%
    16:00 -2°C° 0 mm 4 mps 743 mmHg 62%
    17:00 -2°C° 0 mm 5 mps 743 mmHg 64%
    18:00 -2°C° 0 mm 5 mps 743 mmHg 66%
    19:00 -4°C° 0 mm 5 mps 744 mmHg 68%
    20:00 -4°C° 0 mm 5 mps 744 mmHg 70%
    21:00 -4°C° 0 mm 5 mps 744 mmHg 71%
    22:00 -4°C° 0 mm 5 mps 744 mmHg 73%
    23:00 -4°C° 0 mm 5 mps 744 mmHg 74%

    Tomorrow, 20 November, Tuesday

    Time Temperature Precipitation Wind Pressure Humidity
    00:00 -4°C° 0 mm 5 mps 744 mmHg 76%
    01:00 -2°C° 0 mm 5 mps 744 mmHg 77%
    02:00 -3°C° 0 mm 6 mps 743 mmHg 77%
    03:00 -3°C° 0 mm 6 mps 743 mmHg 77%
    04:00 -3°C° 0 mm 6 mps 743 mmHg 77%
    05:00 -3°C° 0 mm 6 mps 743 mmHg 76%
    06:00 -3°C° 0 mm 6 mps 743 mmHg 76%
    07:00 -3°C° 0 mm 6 mps 743 mmHg 76%
    08:00 -3°C° 0 mm 6 mps 743 mmHg 74%
    09:00 -2°C° 0 mm 7 mps 742 mmHg 72%
    10:00 -2°C° 0 mm 7 mps 742 mmHg 70%
    11:00 -1°C° 0 mm 7 mps 742 mmHg 68%
    12:00 -1°C° 0 mm 7 mps 741 mmHg 66%
    13:00 0°C° 0 mm 7 mps 741 mmHg 64%
    14:00 -1°C° 0 mm 7 mps 741 mmHg 65%
    15:00 -1°C° 0 mm 6 mps 741 mmHg 66%
    16:00 -1°C° 0 mm 6 mps 741 mmHg 67%
    17:00 -2°C° 0.2 mm 6 mps 741 mmHg 69%
    18:00 -2°C° 0.2 mm 6 mps 740 mmHg 72%
    19:00 -2°C° 0.2 mm 6 mps 740 mmHg 75%
    20:00 -2°C° 0.5 mm 6 mps 740 mmHg 79%
    21:00 -2°C° 0.5 mm 6 mps 741 mmHg 83%
    22:00 -1°C° 0.5 mm 5 mps 741 mmHg 86%
    23:00 -1°C° 0.1 mm 5 mps 741 mmHg 87%

    Day after tomorrow, 21 November, Wednesday

    Time Temperature Precipitation Wind Pressure Humidity
    00:00 -1°C° 0.1 mm 5 mps 741 mmHg 87%
    01:00 -1°C° 0.1 mm 5 mps 741 mmHg 87%
    02:00 -1°C° 0 mm 4 mps 741 mmHg 87%
    03:00 -1°C° 0 mm 4 mps 741 mmHg 87%
    04:00 -1°C° 0 mm 4 mps 741 mmHg 87%
    05:00 -1°C° 0.1 mm 4 mps 741 mmHg 87%
    06:00 -1°C° 0.1 mm 4 mps 742 mmHg 88%
    07:00 -1°C° 0.1 mm 4 mps 742 mmHg 88%
    08:00 -1°C° 0 mm 4 mps 742 mmHg 87%
    09:00 -1°C° 0 mm 4 mps 743 mmHg 86%
    10:00 -1°C° 0 mm 4 mps 743 mmHg 85%
    11:00 -1°C° 0 mm 5 mps 743 mmHg 84%
    12:00 0°C° 0 mm 5 mps 743 mmHg 84%
    13:00 0°C° 0 mm 5 mps 743 mmHg 83%
    14:00 0°C° 0 mm 4 mps 743 mmHg 83%
    15:00 -1°C° 0 mm 4 mps 743 mmHg 84%
    16:00 -1°C° 0 mm 4 mps 744 mmHg 84%
    17:00 -1°C° 0 mm 4 mps 744 mmHg 84%
    18:00 -1°C° 0 mm 4 mps 744 mmHg 84%
    19:00 -1°C° 0 mm 4 mps 744 mmHg 84%
    20:00 -1°C° 0 mm 4 mps 745 mmHg 83%
    21:00 -1°C° 0 mm 4 mps 745 mmHg 83%
    22:00 -1°C° 0 mm 4 mps 745 mmHg 83%
    23:00 -1°C° 0 mm 4 mps 745 mmHg 83%

    22 November, Thursday

    Time Temperature Precipitation Wind Pressure Humidity
    00:00 -2°C° 0 mm 4 mps 745 mmHg 83%
    01:00 -2°C° 0 mm 4 mps 745 mmHg 84%
    02:00 -2°C° 0 mm 4 mps 745 mmHg 84%
    03:00 -1°C° 0 mm 3 mps 745 mmHg 85%
    04:00 -1°C° 0 mm 3 mps 745 mmHg 85%
    05:00 -2°C° 0 mm 3 mps 745 mmHg 85%
    06:00 -2°C° 0 mm 3 mps 746 mmHg 86%
    07:00 -3°C° 0 mm 4 mps 746 mmHg 86%
    08:00 -2°C° 0 mm 4 mps 746 mmHg 84%
    09:00 -2°C° 0 mm 4 mps 746 mmHg 82%
    10:00 -1°C° 0 mm 4 mps 746 mmHg 79%
    11:00 0°C° 0 mm 3 mps 746 mmHg 78%
    12:00 +1°C° 0 mm 3 mps 746 mmHg 77%
    13:00 +1°C° 0 mm 3 mps 746 mmHg 75%
    14:00 +1°C° 0 mm 3 mps 746 mmHg 77%
    15:00 +1°C° 0 mm 2 mps 746 mmHg 79%
    16:00 +1°C° 0 mm 2 mps 746 mmHg 81%
    17:00 +1°C° 0 mm 2 mps 746 mmHg 82%
    18:00 -1°C° 0 mm 2 mps 746 mmHg 83%
    19:00 -1°C° 0 mm 2 mps 747 mmHg 84%
    20:00 -1°C° 0 mm 2 mps 747 mmHg 85%
    21:00 -1°C° 0 mm 2 mps 747 mmHg 86%
    22:00 -2°C° 0 mm 2 mps 747 mmHg 87%
    23:00 -2°C° 0 mm 2 mps 747 mmHg 88%

    23 November, Friday

    Time Temperature Precipitation Wind Pressure Humidity
    00:00 -2°C° 0 mm 2 mps 747 mmHg 88%
    01:00 -2°C° 0 mm 2 mps 747 mmHg 88%
    02:00 -2°C° 0 mm 2 mps 747 mmHg 88%
    03:00 -2°C° 0 mm 2 mps 747 mmHg 88%
    04:00 -2°C° 0 mm 2 mps 747 mmHg 88%
    05:00 -2°C° 0 mm 2 mps 747 mmHg 88%
    06:00 -2°C° 0 mm 2 mps 748 mmHg 88%
    07:00 -2°C° 0 mm 2 mps 748 mmHg 88%
    08:00 -1°C° 0 mm 2 mps 748 mmHg 85%
    09:00 +1°C° 0 mm 2 mps 748 mmHg 82%
    10:00 +2°C° 0 mm 2 mps 748 mmHg 78%
    11:00 +3°C° 0 mm 2 mps 748 mmHg 77%
    12:00 +4°C° 0 mm 2 mps 748 mmHg 76%
    13:00 +5°C° 0 mm 2 mps 748 mmHg 74%
    14:00 +4°C° 0 mm 2 mps 747 mmHg 79%
    15:00 +3°C° 0 mm 2 mps 747 mmHg 83%
    16:00 +3°C° 0 mm 2 mps 747 mmHg 88%
    17:00 +2°C° 0 mm 2 mps 747 mmHg 89%
    18:00 +2°C° 0 mm 2 mps 747 mmHg 90%
    19:00 +1°C° 0 mm 3 mps 747 mmHg 91%
    20:00 +1°C° 0 mm 3 mps 746 mmHg 91%
    21:00 +2°C° 0 mm 3 mps 746 mmHg 91%
    22:00 +2°C° 0 mm 3 mps 746 mmHg 92%
    23:00 +2°C° 0 mm 3 mps 746 mmHg 91%

    24 November, Saturday

    Time Temperature Precipitation Wind Pressure Humidity
    00:00 +2°C° 0 mm 3 mps 745 mmHg 91%
    01:00 +2°C° 0 mm 3 mps 745 mmHg 91%
    02:00 +2°C° 0 mm 3 mps 744 mmHg 91%
    03:00 +2°C° 0 mm 3 mps 744 mmHg 91%
    04:00 +2°C° 0 mm 3 mps 744 mmHg 91%
    05:00 +2°C° 0 mm 3 mps 743 mmHg 91%
    06:00 +1°C° 0 mm 3 mps 743 mmHg 91%
    07:00 +1°C° 0 mm 3 mps 743 mmHg 91%
    08:00 +2°C° 0 mm 3 mps 743 mmHg 87%
    09:00 +3°C° 0 mm 4 mps 742 mmHg 84%
    10:00 +4°C° 0 mm 4 mps 742 mmHg 80%
    11:00 +5°C° 0 mm 3 mps 742 mmHg 77%
    12:00 +7°C° 0 mm 3 mps 741 mmHg 75%
    13:00 +7°C° 0 mm 3 mps 741 mmHg 72%
    14:00 +5°C° 0 mm 3 mps 740 mmHg 76%
    15:00 +5°C° 0 mm 3 mps 740 mmHg 80%
    16:00 +4°C° 0 mm 3 mps 739 mmHg 83%
    17:00 +4°C° 0.1 mm 3 mps 739 mmHg 83%
    18:00 +4°C° 0.1 mm 3 mps 739 mmHg 83%
    19:00 +4°C° 0.1 mm 3 mps 738 mmHg 83%
    20:00 +5°C° 0.8 mm 2 mps 738 mmHg 86%
    21:00 +5°C° 0.8 mm 2 mps 738 mmHg 89%
    22:00 +5°C° 0.8 mm 2 mps 738 mmHg 91%
    23:00 +4°C° 0.3 mm 2 mps 737 mmHg 92%
    Show more